Location: Niedergestelen
(46.3129°N, 7.7822°E)
Time: 04:32:56
(UTC+00:00)

FENGYUN 1C DEB - Visible Passes

Search period start: 15 June 2021 00:00
Search period end: 25 June 2021 00:00
Orbit: 727 x 834 km, 99.6° (Epoch: 14 June)

Date Brightness Start Highest point End Pass type
(mag) Time Alt. Az. Time Alt. Az. Time Alt. Az.
16 Jun ? 20:02:23 10° NNW 20:05:04 15° NW 20:07:47 10° W visible
19 Jun ? 20:04:51 10° NNW 20:07:33 15° NW 20:10:15 10° W visible
22 Jun ? 20:07:20 10° NNW 20:10:02 15° NW 20:12:44 10° W visible
